Regional Weather Roundup
Issued by NWS

Home | Current Version | Previous Version | Text Only | Print | Product List | Glossary On
Versions: 1 2 3 4 5 6 7 8 9 10 11 12 13 14 15 16 17 18 19 20 21 22 23 24 25 26 27 28 29 30 31 32 33 34 35 36 37 38 39 40 41 42 43 44 45 46 47 48 49 50
759
ASUS43 KTOP 011359
RWRKS

WEATHER ROUNDUP FOR KANSAS
NATIONAL WEATHER SERVICE GOODLAND KS
900 AM CDT SUN MAY 01 2016

NOTE:  "FAIR" INDICATES FEW OR NO CLOUDS BELOW 12,000 FEET WITH NO
SIGNIFICANT WEATHER AND/OR OBSTRUCTIONS TO VISIBILITY.

KSZ001>006-013>018-027>032-041>047-011500-
NORTHWEST KANSAS

CITY           SKY/WX    TMP DP  RH WIND       PRES   REMARKS
GOODLAND       MIX PCPN  35  34  96 N18       30.21R FOG     WCI  24
HAYS           CLOUDY    43  32  65 NW16G25   30.12R
HILL CITY      CLOUDY    41  38  89 N18       30.15R
RUSSELL        CLOUDY    43  42  97 NW22G30   30.08R
$$

KSZ061>065-074>080-084>089-011500-
SOUTHWEST KANSAS

CITY           SKY/WX    TMP DP  RH WIND       PRES   REMARKS
DODGE CITY     CLOUDY    40  35  83 NW17G26   30.14R WCI  31
ELKHART          N/A     41  30  65 NW15        N/A
GARDEN CITY    CLOUDY    40  34  79 N24       30.15R WCI  29
GREAT BEND     CLOUDY    45  36  70 NW16G24   30.10R
LIBERAL        MOSUNNY   45  34  65 NW25G31   30.16R
$$

KSZ066>073-081>083-090>101-011500-
SOUTHEAST KANSAS

CITY           SKY/WX    TMP DP  RH WIND       PRES   REMARKS
CHANUTE        SUNNY     51  43  74 NW12      30.02R
COFFEYVILLE    CLOUDY    52  45  77 NW9       30.03S
HUTCHINSON     CLOUDY    48  42  80 NW15      30.06R
MEDICINE LODGE   N/A     47  39  74 N15G28    30.08R
NEWTON         CLOUDY    45  36  70 NW16G23   30.07R
PARSONS        SUNNY     52  46  80 NW8       30.03S
WICHITA INTL   PTSUNNY   48  39  71 NW21G26   30.06R
WICHITA JABRA  PTSUNNY   47  39  74 NW18      30.05R
WINFIELD       MOSUNNY   49  42  77 NW17      30.06R
$$

KSZ007>012-019>026-033>040-048>060-102>105-011500-
NORTHEAST KANSAS

CITY           SKY/WX    TMP DP  RH WIND       PRES   REMARKS
CONCORDIA      CLOUDY    46  43  89 N16       30.03R
EMPORIA        MOSUNNY   48  42  80 W12       30.02R
LAWRENCE       MOSUNNY   54  47  77 W9        29.99R
MANHATTAN      CLOUDY    49  41  74 W7        30.01R
OLATHE IND     SUNNY     52  46  80 W9        29.99R
OLATHE EXE     SUNNY     52  45  77 W8        29.98R
SALINA         CLOUDY    49  46  90 NW17      30.03R
TOPEKA BILLARD CLOUDY    51  46  83 W10       30.00R
TOPEKA FORBES  PTSUNNY   53  46  77 W12       29.99R
$$




USA.gov is the U.S. government's official web portal to all federal, state and local government web resources and services.